Montpelier, VT

2:18 AM EDT on September 29, 2016 (GMT -0400)
Knapp State

Weather History for KMPV - November, 2013

Change the Weather History Date:

Tuesday, November 26, 2013

  Actual Average Record
Temperature  
Mean Temperature 29 °F 31 °F  
Max Temperature 32 °F 39 °F 61 °F (1979)
Min Temperature 26 °F 23 °F -3 °F (1949)
Degree Days  
Heating Degree Days 36 34  
Month to date heating degree days 828 750  
Since 1 July heating degree days 1763 1706  
Cooling Degree Days 0 0  
Month to date cooling degree days 0  
Year to date cooling degree days 264  
Moisture  
Dew Point 24 °F    
Average Humidity 68    
Maximum Humidity 92    
Minimum Humidity 43    
Precipitation  
Precipitation T in 0.11 in 1.56 in (1979)
Month to date precipitation 1.53 2.77  
Year to date precipitation 33.94 34.13  
Sea Level Pressure  
Sea Level Pressure 30.19 in    
Wind  
Wind Speed 7 mph (South)    
Max Wind Speed 17 mph    
Max Gust Speed 21 mph    
Visibility 5 miles    
Events Snow    
T = Trace of Precipitation, MM = Missing Value Source: NWS Daily Summary

Daily Weather History Graph

Daily Weather History Graph

Search for Another Location

Airport or City:

Trip Planner

Search our weather history database for the weather conditions in past years. The results will help you decide how hot, cold, wet, or windy it might be!

Date:

Astronomy

Nov. 26, 2013 Rise Set
Actual Time 7:00 AM EST 4:14 PM EST
Civil Twilight 6:27 AM EST 4:47 PM EST
Nautical Twilight 5:51 AM EST 5:22 PM EST
Astronomical Twilight 5:17 AM EST 5:57 PM EST
Moon No Moon Rise 12:33 PM EST (11/26)
Length of Visible Light 10h 19m
Length of Day
9h 14m
Last Quarter, 41% of the Moon is Illuminated
Nov 26
Last Quarter
Dec 2
New
Dec 9
First Quarter
Dec 17
Full
Dec 25
Last Quarter

Hourly Weather History & Observations

Time (EST) Temp. Windchill Dew Point Humidity Pressure Visibility Wind Dir Wind Speed Gust Speed Precip Events Conditions
12:51 AM 28.0 °F 21.7 °F 10.0 °F 47% 30.19 in 10.0 mi SSW 5.8 mph 17.3 mph N/A   Overcast
1:51 AM 28.9 °F 23.9 °F 10.0 °F 45% 30.20 in 10.0 mi Variable 4.6 mph - N/A   Overcast
2:51 AM 28.9 °F 21.9 °F 10.0 °F 45% 30.21 in 10.0 mi SSE 6.9 mph 17.3 mph N/A   Overcast
3:51 AM 30.0 °F 22.4 °F 10.9 °F 45% 30.20 in 10.0 mi SW 8.1 mph - N/A   Overcast
4:51 AM 28.0 °F 20.0 °F 12.9 °F 53% 30.21 in 10.0 mi SSE 8.1 mph - N/A   Overcast
5:51 AM 27.0 °F 17.3 °F 18.0 °F 69% 30.22 in 10.0 mi SSE 10.4 mph - N/A   Overcast
6:51 AM 27.0 °F 19.5 °F 19.9 °F 75% 30.23 in 10.0 mi SSE 6.9 mph - N/A   Overcast
7:51 AM 27.0 °F 18.0 °F 21.0 °F 78% 30.28 in 10.0 mi South 9.2 mph 18.4 mph N/A   Overcast
8:51 AM 27.0 °F 18.7 °F 21.0 °F 78% 30.30 in 10.0 mi SSE 8.1 mph - N/A   Overcast
9:51 AM 28.0 °F 20.8 °F 21.9 °F 78% 30.30 in 10.0 mi SSE 6.9 mph - N/A   Overcast
10:51 AM 28.9 °F 21.1 °F 23.0 °F 78% 30.27 in 10.0 mi South 8.1 mph - N/A   Overcast
11:51 AM 30.9 °F 26.2 °F 23.0 °F 72% 30.26 in 10.0 mi SE 4.6 mph - N/A   Overcast
12:51 PM 32.0 °F 27.5 °F 23.0 °F 69% 30.26 in 10.0 mi South 4.6 mph - N/A   Overcast
1:51 PM 32.0 °F 28.7 °F 24.1 °F 73% 30.26 in 10.0 mi Variable 3.5 mph - N/A   Overcast
2:51 PM 32.0 °F 24.2 °F 24.1 °F 73% 30.25 in 10.0 mi SSE 9.2 mph - N/A   Overcast
3:51 PM 30.9 °F 24.3 °F 26.1 °F 82% 30.26 in 2.5 mi SSE 6.9 mph - 0.00 in   Haze
4:05 PM 30.2 °F 24.3 °F 26.6 °F 86% 30.20 in 1.5 mi SSE 5.8 mph - 0.00 in Snow Light Snow
4:13 PM 30.2 °F 22.6 °F 26.6 °F 86% 30.20 in 3.0 mi SSE 8.1 mph - 0.00 in Snow Light Snow
4:32 PM 30.2 °F 23.4 °F 26.6 °F 86% 30.21 in 2.0 mi SSE 6.9 mph - 0.00 in Snow Light Snow
4:37 PM 30.2 °F 23.4 °F 26.6 °F 86% 30.20 in 1.8 mi SSE 6.9 mph - 0.00 in Snow Light Snow
4:51 PM 28.9 °F 21.1 °F 26.1 °F 89% 30.25 in - South 8.1 mph - 0.00 in Snow Light Snow
4:58 PM 28.4 °F 19.7 °F 26.6 °F 93% 30.19 in 1.8 mi SSE 9.2 mph - 0.00 in Snow Light Snow
5:20 PM 28.4 °F 21.2 °F 26.6 °F 93% 30.19 in 2.0 mi South 6.9 mph - 0.00 in Snow Light Snow
5:31 PM 28.4 °F 22.2 °F 26.6 °F 93% 30.18 in - South 5.8 mph - 0.00 in   Overcast
5:38 PM 28.4 °F - 26.6 °F 93% 30.18 in 2.5 mi North - - 0.00 in Snow Light Snow
5:51 PM 28.9 °F 22.8 °F 26.1 °F 89% 30.24 in 5.0 mi South 5.8 mph - 0.00 in   Overcast
6:43 PM 28.4 °F 23.3 °F 26.6 °F 93% 30.17 in 2.0 mi South 4.6 mph - 0.00 in Snow Light Snow
6:51 PM 28.9 °F 21.9 °F 26.1 °F 89% 30.22 in 1.8 mi South 6.9 mph - 0.00 in Snow Light Snow
7:09 PM 28.4 °F 22.2 °F 26.6 °F 93% 30.17 in 2.0 mi South 5.8 mph - 0.00 in Snow Light Snow
7:12 PM 28.4 °F - 26.6 °F 93% 30.17 in - North - - 0.00 in Snow Light Snow
7:16 PM 28.4 °F 22.2 °F 26.6 °F 93% 30.17 in 1.8 mi South 5.8 mph - 0.00 in Snow Light Snow
7:24 PM 28.4 °F 21.2 °F 26.6 °F 93% 30.17 in 1.8 mi South 6.9 mph - 0.00 in   Overcast
7:51 PM 28.9 °F 22.8 °F 27.0 °F 92% 30.21 in 1.5 mi South 5.8 mph - 0.00 in Snow Light Snow
8:04 PM 28.4 °F 22.2 °F 26.6 °F 93% 30.15 in 1.2 mi South 5.8 mph - 0.00 in Snow Light Snow
8:15 PM 28.4 °F 21.2 °F 26.6 °F 93% 30.14 in 1.0 mi South 6.9 mph - 0.00 in Snow Light Snow
8:39 PM 28.4 °F 22.2 °F 26.6 °F 93% 30.13 in 1.2 mi South 5.8 mph - 0.00 in Snow Light Snow
8:51 PM 28.9 °F 21.9 °F 27.0 °F 92% 30.18 in 1.2 mi South 6.9 mph - 0.00 in Snow Light Snow
9:03 PM 28.4 °F 22.2 °F 26.6 °F 93% 30.12 in 1.5 mi South 5.8 mph - 0.00 in Snow Light Snow
9:51 PM 28.9 °F 21.1 °F 27.0 °F 92% 30.14 in 1.5 mi South 8.1 mph - 0.00 in Snow Light Snow
10:25 PM 28.4 °F 20.4 °F 26.6 °F 93% 30.07 in 2.5 mi South 8.1 mph - 0.00 in   Overcast
10:35 PM 28.4 °F 19.7 °F 26.6 °F 93% 30.06 in 3.0 mi South 9.2 mph - 0.00 in Snow Light Snow
10:51 PM 28.9 °F 21.9 °F 27.0 °F 92% 30.11 in 5.0 mi SSW 6.9 mph - 0.00 in   Overcast
11:14 PM 30.2 °F 25.4 °F 26.6 °F 86% 30.05 in 6.0 mi South 4.6 mph - 0.00 in   Overcast
11:51 PM 30.0 °F - 27.0 °F 88% 30.07 in 8.0 mi North - - 0.00 in   Overcast